Regional Weather Roundup
Issued by NWS

Home | Current Version | Previous Version | Text Only | Print | Product List | Glossary On
Versions: 1 2 3 4 5 6 7 8 9 10 11 12 13 14 15 16 17 18 19 20 21 22 23 24 25 26 27 28 29 30 31 32 33 34 35 36 37 38 39 40 41 42 43 44 45 46 47 48 49 50
559
ASUS44 KLIX 250310
RWRLA
LOUISIANA WEATHER ROUNDUP
NATIONAL WEATHER SERVICE NEW ORLEANS LA
1000 PM CDT THU JUL 24 2014

NOTE: "FAIR" INDICATES FEW OR NO CLOUDS BELOW 12,000 FEET WITH NO
      SIGNIFICANT WEATHER AND/OR OBSTRUCTIONS TO VISIBILITY.
      SKY/WX - SKY CONDITION AND SIGNIFICANT WEATHER.
      TMP - AIR TEMPERATURE.    DP   - DEWPOINT TEMPERATURE.
      RH  - RELATIVE HUMIDITY.  PRES - PRESSURE.
      HX  - HEAT INDEX.         WCI  - WIND CHILL INDEX.

*  THESE STATIONS ARE NOT NWS OR FAA STATIONS AND ARE NOT UNDER
   NWS QUALITY CONTROL.

LAZ040-048-061>063-065-066-069-250400-
SOUTHEAST LOUISIANA

CITY           SKY/WX    TMP DP  RH WIND       PRES   REMARKS
N.O. AUDUBON     N/A     82  76  81 MISG        N/A
N.O. INTL ARPT PTCLDY    80  75  84 SW8       29.98R
N.O. LAKEFRONT CLEAR     82  74  76 S8        29.98R
N.O. DOWNTOWN* FAIR      84  72  65 S3        29.98S
SLIDELL        CLEAR     78  75  90 CALM      29.97R
BATON ROUGE    CLEAR     77  74  90 CALM      29.98R
BOOTHVILLE     CLEAR     82  74  76 SW7       29.98S
BELLE CHASSE   MOCLDY    78  74  87 SW3       29.97R
BOGALUSA*      FAIR      80  75  84 CALM      29.99R
GALLIANO*      NOT AVBL
NEW ROADS*     FAIR      79  76  91 SW3       29.97S
GONZALES*      FAIR      78  77  96 CALM      29.98R
HAMMOND*       PTCLDY    77  73  88 CALM      29.99R
HOUMA*         PTCLDY    76  72  87 CALM      29.99R
PORT FOURCHON* PTCLDY    82  77  83 SW7       30.00R

$$

LAZ041-044-053-054-250400-
SOUTHWEST LOUISIANA

CITY           SKY/WX    TMP DP  RH WIND       PRES   REMARKS
LAKE CHARLES   CLEAR     80  77  90 SE3       29.97R
LAFAYETTE      PTCLDY    81  76  84 CALM      29.98R
PATTERSON      CLEAR     77  73  88 CALM      30.02R
SALT POINT       N/A     83  77  82 CALM      29.98R
NEW IBERIA     CLEAR     79  75  87 W3        29.99R
CHENAULT AIRPK CLEAR     79  75  86 CALM      29.99R

$$

LAZ027-028-250400-
CENTRAL LOUISIANA

CITY           SKY/WX    TMP DP  RH WIND       PRES   REMARKS
FORT POLK      CLEAR     80  73  79 CALM      29.99R
ALEXANDRIA INT CLEAR     78  75  90 CALM      29.96R
ALEXANDRIA     CLEAR     78  74  87 CALM      29.98R

$$

LAZ001-002-250400-
NORTHWEST LOUISIANA

CITY           SKY/WX    TMP DP  RH WIND       PRES   REMARKS
SHREVEPORT     CLEAR     79  73  82 CALM      29.99R
BARKSDALE AFB  CLEAR     77  73  86 NE2       29.99R
DTN SHREVEPORT CLEAR     79  72  79 CALM      29.99R

$$

LAZ014-016-250400-
NORTHEAST LOUISIANA

CITY           SKY/WX    TMP DP  RH WIND       PRES   REMARKS
MONROE         CLEAR     80  73  79 NE9       30.00R
TALLULAH       CLEAR     79  73  82 N7        29.99R

$$




USA.gov is the U.S. government's official web portal to all federal, state and local government web resources and services.